EHI
0 0 0 0 0 0 0 0 0 0 0 0 0 0 0 0 0 0 0 0 0 0 0 0 0 0 0 0 0 0 0 0 0 0 0 0 0 0 0 0 0 0 0 0
0 0 0 0 0 0 0 0 0 0 0 0 0 0 0 0 0 0 0 0 0 0 0 0 0 0 0 0 0 0 0 0 0 0 0 0 0 0 0 0 0 0 0 0
0 0 0 0 0 0 0 0 0 0 0 0 0 0 0 0 0 0 0 0 0 0 0 0 0 0 0 0 0 0 0 0 0 0 0 0 0 0 0 0 0 0 0 0
0 0 0 0 0 0 0 0 0 0 0 0 0 0 0 0 0 0 0 0 0 0 0 0 0 0 0 0 0 0 0 0 0 0 0 0 0 0 0 0 0 0 0 0
0 0 0 0 0 0 0 0 0 0 0 0 0 0 0 0 0 0 0 0 0 0 0 0 0 0 0 0 0 0 0 0 0 0 0 0 0 0 0 0 0 0 0 0
0 0 0 0 0 0 0 0 0 0 0 0 0 0 0 0 0 0 0 0 0 0 0 0 0 0 0 0 0 0 0 0 0 0 0 0 0 0 0 0 0 0 0 0
0 0 0 0 0 0 0 0 0 0 0 0 0 0 0 0 0 0 0 0 0 0 0 0 0 0 0 0 0 0 0 0 0 0 0 0 0 0 0 0 0 0 0 0
0 0 0 0 0 0 0 0 0 0 0 0 0 0 0 0 0 0 0 0 0 0 0 0 0 0 0 0 0 0 0 0 0 0 0 0 0 0 0 0 0 0 0 0
0 0 0 0 0 0 0 0 0 0 0 0 0 0 0 0 0 0 0 0 0 0 0 0 0 0 0 0 0 0 0 0 0 0 0 0 0 0 0 0 0 0 0 0
0 0 0 0 0 0 0 0 0 0 0 0 0 0 0 0 0 0 0 0 0 0 0 0 0 0 0 0 0 0 0 0 0 0 0 0 0 0 0 0 0 0 0 0
0 0 0 0 0 0 0 0 0 0 0 0 0 0 0 0 0 0 0 0 0 0 0 0 0 0 0 0 0 0 0 0 0 0 0 0 0 0 0 0 0 0 0 0
0 0 0 0 0 0 0 0 0 0 0 0 0 0 0 0 0 0 0 0 0 0 0 0 0 0 0 0 0 0 0 0 0 0 0 0 0 0 0 0 0 0 0 0
0 0 0 0 0 0 0 0 0 0 0 0 0 0 0 0 0 0 0 0 0 0 0 0 0 0 0 0 0 0 0 0 0 0 0 0 0 0 0 0 0 0 0 0
0 0 0 0 0 0 0 0 0 0 0 0 0 0 0 0 0 0 0 0 0 0 0 0 0 0 0 0 0 0 0 0 0 0 0 0 0 0 0 0 0 0 0 0
0 0 0 0 0 0 0 0 0 0 0 0 0 0 0 0 0 0 0 0 0 0 0 0 0 0 0 0 0 0 0 0 0 0 0 0 0 0 0 0 0 0 0 0
0 0 0 0 0 0 0 0 0 0 0 0 0 0 0 0 0 0 0 0 0 0 0 0 0 0 0 0 0 0 0 0 0 0 0 0 0 0 0 0 0 0 0 0
0 0 0 0 0 0 0 0 0 0 0 0 0 0 0 0 0 0 0 0 0 0 0 0 0 0 0 0 0 0 0 0 0 0 0 0 0 0 0 0 0 0 0 0
0 0 0 0 0 0 0 0 0 0 0 0 0 0 0 0 0 0 0 0 0 0 0 0 0 0 0 0 0 0 0 0 0 0 0 0 0 0 0 0 0 0 0 0
0 0 0 0 0 0 0 0 0 0 0 0 0 0 0 0 0 0 0 0 0 0 0 0 0 0 0 0 0 0 0 0 0 0 0 0 0 0 0 0 0 0 0 0
0 0 0 0 0 0 0 0 0 0 0 0 0 0 0 0 0 0 0 0 0 0 0 0 0 0 0 0 0 0 0 0 0 0 0 0 0 0 0 0 0 0 0 0
0 0 0 0 0 0 0 0 0 0 0 0 0 0 0 0 0 0 0 0 0 0 0 0 0 0 0 0 0 0 0 0 0 0 0 0 0 0 0 0 0 0 0 0
0 0 0 0 0 0 0 0 0 0 0 0 0 0 0 0 0 0 0 0 0 0 0 0 0 0 0 0 0 0 0 0 0 0 0 0 0 0 0 0 0 0 0 0
0 0 0 0 0 0 0 0 0 0 0 0 0 0 0 0 0 0 0 0 0 0 0 0 0 0 0 0 0 0 0 0 0 0 0 0 0 0 0 0 0 0 0 0
0 0 0 0 0 0 0 0 0 0 0 0 0 0 0 0 0 0 0 0 0 0 0 0 0 0 0 0 0 0 0 0 0 0 0 0 0 0 0 0 0 0 0 0
0 0 0 0 0 0 0 0 0 0 0 0 0 0 0 0 0 0 0 0 0 0 0 0 0 0 0 0 0 0 0 0 0 0 0 0 0 0 0 0 0 0 0 0
0 0 0 0 0 0 0 0 0 0 0 0 0 0 0 0 0 0 0 0 0 0 0 0 0 0 0 0 0 0 0 0 0 0 0 0 0 0 0 0 0 0 0 0
Wind_Speed
3 5 2 3 3 4 5 4 3 2 2 5 6 5 3 2 3 2 1 1 2 1 1 1 2 3 3 3 3 3 3 2 2 2 2 2 2 2 2 2 3 3 3 3
5 2 1 3 4 6 6 6 3 4 3 4 5 4 3 2 1 1 2 1 2 1 2 2 3 3 3 3 3 3 2 2 2 2 1 1 1 1 1 2 3 4 4 3
3 2 2 4 4 5 3 5 5 4 2 4 3 3 3 2 2 2 1 1 1 2 3 2 2 2 3 3 2 2 2 2 2 2 2 2 3 3 3 3 3 4 4 4
1 1 2 3 3 4 1 2 5 5 4 2 2 1 2 1 2 1 1 0 1 1 2 2 2 2 2 2 2 3 3 3 3 3 3 3 2 1 2 2 2 3 4 4
0 0 3 2 2 4 4 5 5 4 4 3 3 2 4 1 2 3 3 2 2 1 3 3 3 3 2 2 3 3 4 4 3 3 4 4 3 1 1 2 3 4 4 4
1 0 1 2 3 5 7 7 6 5 4 2 1 2 5 4 6 4 4 3 3 2 3 2 2 3 3 3 3 4 4 4 3 4 3 3 3 2 3 3 3 3 3 3
2 2 1 3 6 4 5 6 3 2 2 2 1 2 7 5 5 6 6 5 4 3 3 4 4 3 3 3 3 3 4 3 3 3 3 3 3 3 2 1 2 2 2 3
3 0 1 1 4 5 3 5 6 5 4 2 1 4 6 3 2 3 4 4 4 4 3 4 4 4 3 3 3 3 3 3 2 3 2 2 2 2 1 1 1 1 1 1
4 2 0 2 2 7 5 2 4 6 2 1 3 5 5 1 2 3 4 5 5 5 4 4 4 3 3 3 3 3 4 2 2 2 2 2 2 2 2 2 2 1 1 2
6 3 1 2 4 3 4 6 4 5 5 2 3 4 5 5 6 6 6 7 6 5 4 4 4 4 3 3 2 3 3 3 2 2 1 2 1 1 2 2 2 2 2 2
4 4 1 2 4 6 4 3 4 4 4 5 3 7 7 9 10 10 9 8 7 7 6 5 4 3 3 3 3 3 2 2 2 2 1 2 1 1 2 2 1 1 2 2
4 5 2 4 3 5 5 6 7 5 3 4 3 8 3 5 7 9 8 7 6 6 5 5 4 3 3 3 3 3 2 2 2 2 2 2 1 2 2 1 1 1 2 2
6 6 3 3 3 1 2 4 4 5 5 4 4 7 3 1 4 6 7 7 6 6 5 4 4 4 4 3 3 3 2 2 2 2 2 1 1 1 1 0 1 1 1 2
6 5 6 8 7 6 5 5 6 6 4 5 7 7 4 3 6 7 7 7 7 6 6 6 5 4 4 3 3 3 2 2 2 2 2 1 1 1 1 0 1 1 1 1
5 3 4 5 4 4 5 6 8 7 8 8 8 8 9 9 10 9 8 7 7 7 7 7 6 5 4 4 3 3 2 2 2 2 2 1 1 0 0 1 1 1 1 1
3 3 2 2 2 3 3 5 8 7 5 6 4 8 7 4 5 6 9 10 10 9 9 8 7 6 6 5 4 3 3 2 2 2 2 1 1 1 0 0 1 1 1 1
4 5 3 2 2 2 5 8 9 7 7 9 10 10 5 5 10 13 13 12 12 11 10 9 9 7 7 6 5 5 3 2 3 2 1 1 1 1 0 0 0 1 1 1
7 5 4 1 1 5 9 3 6 6 7 8 6 5 9 9 8 7 8 12 12 11 10 9 8 7 6 5 4 4 3 3 3 2 1 1 1 1 0 0 0 1 1 1
4 8 5 4 3 6 9 4 6 6 7 7 8 6 4 4 4 2 7 10 11 11 9 8 8 7 6 6 5 5 4 3 3 2 1 1 2 1 1 0 1 1 1 1
5 5 6 4 3 6 9 3 3 4 5 5 8 8 8 9 4 7 7 9 8 7 7 7 7 6 6 6 6 6 4 4 3 3 2 2 2 2 1 2 2 1 1 2
3 3 4 5 5 9 9 2 5 4 9 4 7 9 12 11 8 4 8 8 8 8 7 8 8 7 7 7 7 6 5 4 4 3 2 1 1 2 2 1 1 1 1 1
8 6 6 5 4 10 4 6 8 9 3 3 6 8 10 6 3 5 8 8 9 8 7 8 8 7 5 7 8 6 6 4 3 3 2 1 1 1 1 1 1 1 0 1
7 8 7 9 9 5 3 7 5 2 3 4 6 6 7 6 5 5 6 8 8 9 8 7 8 7 5 6 7 8 6 4 4 3 2 1 1 1 1 1 1 1 1 1
4 3 4 4 8 6 6 5 4 4 4 4 5 7 9 7 7 6 7 7 7 7 8 7 8 8 6 6 6 6 5 5 5 4 3 2 1 1 1 1 1 1 2 2
4 4 3 5 7 6 5 4 4 3 2 2 3 5 8 9 7 7 7 8 8 7 7 8 9 9 8 7 6 5 5 6 5 4 3 2 2 2 2 2 2 3 4 4
5 7 7 7 6 5 6 4 2 3 3 4 4 4 4 7 9 7 7 7 7 7 7 7 7 7 7 7 6 5 5 6 5 4 3 2 2 2 2 2 3 4 6 8
Wind_Direction
43 75 106 161 142 140 136 120 97 60 40 77 86 80 54 59 91 93 85 107 138 163 328 61 79 93 94 86 95 99 98 90 91 77 70 54 20 352 353 358 4 6 8 16
51 46 216 139 120 112 114 108 96 72 54 85 87 64 46 52 100 157 160 155 150 119 68 65 72 80 93 97 95 93 103 97 84 91 104 110 96 3 337 347 9 13 13 10
124 230 189 132 115 108 115 152 152 132 95 64 90 31 14 359 24 46 60 112 138 153 152 131 102 94 90 94 111 111 106 88 76 84 84 63 42 23 15 8 1 358 9 17
80 281 123 115 132 132 138 178 146 134 112 55 94 123 300 316 338 322 300 148 185 164 148 143 131 117 114 120 100 94 91 81 72 79 90 89 81 49 349 336 343 354 12 19
290 95 122 139 162 140 139 108 99 99 100 75 43 108 279 299 252 250 239 230 214 181 161 159 155 143 121 109 103 96 88 77 70 74 91 96 87 75 3 6 18 14 9 14
210 243 158 146 84 111 116 88 66 51 67 63 223 151 262 224 214 213 214 209 194 162 138 130 118 111 98 89 93 95 91 73 65 74 78 101 105 89 59 36 27 13 3 5
40 26 41 110 91 58 96 103 75 33 28 256 227 201 250 239 211 192 190 192 184 159 141 135 128 123 116 108 106 103 100 79 64 73 71 85 101 98 91 74 44 26 10 2
112 288 248 130 139 149 158 132 149 168 191 260 282 240 257 262 211 168 164 166 160 157 155 153 152 148 144 134 126 120 112 98 82 80 73 68 81 90 91 92 80 54 9 332
151 212 2 111 111 128 131 141 152 122 116 115 269 281 300 117 136 150 155 157 172 177 168 162 153 152 154 150 150 146 135 116 100 93 85 71 74 85 92 79 65 48 12 359
142 147 180 132 91 45 133 140 106 117 143 211 274 260 238 212 203 190 183 186 188 178 171 165 161 166 165 159 146 135 135 135 126 109 98 92 78 89 97 81 55 33 11 10
128 130 109 131 180 174 127 122 116 117 148 155 224 262 225 203 196 191 194 191 186 182 180 176 173 168 153 136 135 137 138 125 117 114 100 84 71 91 95 80 45 23 11 12
142 118 157 240 244 175 164 169 151 153 197 174 181 264 276 210 195 186 186 184 183 180 174 169 163 152 146 147 147 151 156 152 157 148 124 106 84 94 90 63 20 20 12 5
143 118 93 357 341 166 182 176 158 130 123 157 177 261 320 174 177 182 178 177 175 170 163 158 158 163 168 167 164 166 172 172 165 148 133 116 104 101 116 14 353 9 15 9
121 125 161 192 215 192 197 183 160 140 158 196 219 242 267 215 194 191 184 177 171 173 171 169 172 177 177 172 169 169 179 173 159 145 140 149 180 181 201 286 344 349 354 358
119 168 212 227 226 190 205 196 178 187 191 193 224 223 236 212 200 193 179 169 168 175 179 180 181 180 177 172 171 167 170 163 146 140 147 183 192 133 77 16 337 339 335 327
120 165 184 281 246 210 233 223 198 209 204 217 235 251 243 193 162 170 177 177 183 188 189 185 180 178 181 181 177 166 164 167 150 153 172 173 123 101 84 329 342 343 327 326
143 139 133 268 315 44 265 227 200 205 203 185 209 231 179 171 188 192 189 188 192 191 188 185 184 185 184 182 174 171 173 153 141 144 141 128 136 136 241 309 25 315 299 314
141 131 136 163 79 241 246 243 198 206 228 212 222 216 189 195 195 193 188 188 192 189 186 186 182 181 179 172 167 157 144 141 136 129 126 129 137 157 185 96 293 286 284 282
141 135 127 135 199 274 292 255 180 185 254 216 210 213 174 119 91 247 206 194 194 189 184 181 177 172 165 167 163 144 140 140 136 149 170 182 171 167 158 228 268 269 263 279
69 102 121 137 174 237 252 253 169 125 277 239 188 180 154 132 158 236 197 183 183 174 168 163 157 151 159 168 154 145 152 152 173 192 195 188 171 164 187 227 248 248 241 257
103 94 142 167 209 257 252 224 127 163 242 229 179 172 167 180 198 187 157 171 171 165 162 156 155 163 173 164 153 155 161 186 200 188 174 172 181 182 200 209 235 261 268 291
172 164 182 153 187 252 233 148 181 215 234 186 183 179 181 189 156 150 159 164 162 160 158 158 160 168 167 161 159 164 188 200 175 158 159 185 209 221 187 169 265 302 287 296
195 188 184 187 210 238 220 214 239 214 214 203 187 184 168 165 176 168 166 167 167 166 164 163 162 161 165 171 170 177 196 176 161 157 178 210 218 227 208 191 223 277 276 270
250 171 166 246 267 261 257 252 254 222 228 222 189 171 166 172 175 171 169 169 168 169 168 162 158 164 178 185 187 189 180 169 162 173 195 207 209 236 247 230 213 217 243 255
223 166 189 256 277 298 288 253 253 242 229 192 167 173 174 166 173 175 175 177 176 172 169 167 172 179 186 184 190 186 172 163 167 182 199 211 218 227 243 249 236 232 236 232
199 181 182 227 234 215 260 276 237 218 222 193 166 168 178 175 176 175 178 180 175 173 169 172 179 182 184 182 188 187 178 170 170 184 204 212 218 229 235 255 289 268 258 274